Torna al catalogo

ERS 2 DEB

AttivoSSO
NORAD 35391·DEBRIS·🇪🇺 EU

Lanciato Apr 21, 1995 da Guiana Space Centre

Loading…

Prossimi Passaggi (prossime 24 ore)

TLE

AggiornatoSource: Space-Track

Epoca: Sep 14, 2026, 10:38 UTC

1 35391U 95021E   26257.44332112  .00001413  00000-0  38133-3 0  9990
2 35391  98.6236 242.6735 0004428 191.7887 321.4072 14.49449254 10517

Traccia ERS 2 DEB in tempo reale con AllMySat

Download on the App Store